www.pogodaiklimat.ru
ПОГОДА в Андовере
Время
и дата
08:54 23.10
09:54 23.10
10:54 23.10
11:54 23.10
12:54 23.10
13:54 23.10
14:54 23.10
15:54 23.10
16:54 23.10
17:54 23.10
18:54 23.10
19:54 23.10
20:54 23.10
21:54 23.10
22:54 23.10
23:54 23.10
00:54 24.10
01:54 24.10
02:54 24.10
03:54 24.10
04:54 24.10
05:54 24.10
06:54 24.10
07:54 24.10
08:54 24.10
09:54 24.10
10:54 24.10
11:54 24.10
12:54 24.10
13:54 24.10
14:54 24.10
15:54 24.10
16:54 24.10
17:54 24.10
18:54 24.10
19:54 24.10
20:54 24.10
21:54 24.10
22:54 24.10
23:54 24.10
00:54 25.10
01:54 25.10
02:54 25.10
03:54 25.10
04:54 25.10
05:54 25.10
06:54 25.10
07:54 25.10
Ветер
(напр.,м/с)
Видим. Явления Облачность Т
(С)
Тd
(С)
f
(%)
Тe
(С)
Тes
(С)
Комфортность P
(гПа)
Po
(гПа)
Тmin
(С)
Tmax
(С)
R
(мм)
R24
(мм)
S
(см)
ЮЗ 1 0 м н/о +18.9 +16.7 87 +21 +21 комфорт 1023.5 1002.5
Ю 1 0 м н/о +19.4 +16.1 81 +21 +21 комфорт 1023.0 1001.8
нст 1 0 м н/о +20.0 +16.1 78 +23 +23 комфорт 1022.4 1001.5
нст 1 0 м н/о +20.0 +16.1 78 +23 +23 комфорт 1021.5 1000.5
нст 1 0 м н/о +21.1 +15.6 71 +24 +24 комфорт 1020.6 999.8 +17.8 +21.1
нст 1 0 м н/о +20.6 +15.6 73 +24 +24 комфорт 1020.1 999.2
нст 1 0 м н/о +20.0 +15.6 76 +23 +23 комфорт 1019.5 998.5
нст 1 0 м н/о +20.6 +15.0 70 +24 +24 комфорт 1018.8 997.8
штиль 0 0 м н/о +19.4 +15.6 79 +21 +21 комфорт 1018.3 997.5
штиль 0 0 м н/о +18.9 +15.6 81 +20 +20 1018.3 997.2
штиль 0 0 м н/о +16.7 +15.0 90 +17 +17 1017.9 996.9 +16.1 +21.1
штиль 0 0 м н/о +15.6 +14.4 93 +15 +15 1017.6 996.5
штиль 0 0 м н/о +16.1 +15.6 97 +16 +16 1017.5 996.5
нст 1 0 м н/о +17.2 +15.6 90 +17 +17 1017.1 996.2
нст 1 0 м н/о +17.2 +15.6 90 +18 +18 1016.6 995.5
штиль 0 0 м н/о +16.7 +15.6 93 +17 +17 1015.8 994.9
Ю 1 0 м н/о +17.2 +15.0 87 +18 +18 1015.6 994.5 +15.0 +17.2
нст 1 0 м н/о +17.2 +15.0 87 +18 +18 1015.2 994.2
нст 1 0 м н/о +17.2 +14.4 84 +18 +18 1014.6 993.9
нст 1 0 м н/о +16.7 +15.0 90 +17 +17 1013.8 992.9
нст 1 0 м н/о +17.2 +15.0 87 +18 +18 1013.9 992.9
нст 1 0 м н/о +17.2 +15.0 87 +18 +18 1013.4 992.5
ЮЗ 1 0 м н/о +16.7 +15.0 90 +16 +16 1013.2 992.2 +16.7 +17.2
нст 1 0 м н/о +16.7 +15.0 90 +17 +17 1013.7 992.5
ЮЗ 2 0 м н/о +17.2 +15.6 90 +17 +17 1013.7 992.5
нст 1 0 м н/о +18.3 +15.6 84 +19 +19 1013.2 992.2
ЮЗ 1 0 м н/о +19.4 +15.6 79 +21 +21 комфорт 1012.8 991.9
нст 1
{4}
0 м н/о +17.2 +11.1 67 +17 +17 1013.4 992.5
нст 1 0 м н/о +18.3 +10.6 61 +19 +19 1013.1 992.2 +16.7 +20.0
нст 1 0 м н/о +16.7 +8.9 60 +17 +17 1013.4 992.5
СЗ 2
{4}
0 м н/о +15.0 +7.2 60 +14 +14 1014.4 993.2
нст 1 0 м н/о +14.4 +6.1 57 +14 +14 1014.8 993.5
нст 1 0 м н/о +12.8 +5.0 59 +12 +12 1015.4 994.2
З 1 0 м н/о +11.1 +3.9 61 +10 +10 1016.5 995.2
СЗ 1 0 м н/о +10.0 +2.8 61 +9 +9 1017.5 996.2 +10.0 +18.3
С 2 0 м н/о +8.9 +2.2 63 +6 +6 1018.2 996.9
С 2 0 м н/о +8.3 +1.7 63 +5 +5 1019.1 997.5
нст 1 0 м н/о +7.8 +1.1 63 +6 +6 1019.7 998.2
С 1 0 м н/о +7.2 +1.1 65 +5 +5 1019.7 998.5
С 1 0 м н/о +6.7 +0.6 65 +4 +4 1019.8 998.2
С 1 0 м н/о +6.7 0.0 62 +4 +4 1020.0 998.5 +6.1 +10.0
нст 1 0 м н/о +6.1 +0.6 68 +4 +4 1020.5 998.8
нст 1 0 м н/о +5.6 0.0 67 +3 +3 1020.9 999.2
нст 1 0 м н/о +5.6 +0.6 70 +3 +3 1021.4 999.8
штиль 0 0 м н/о +4.4 +0.6 76 +4 +4 1022.3 1000.5
штиль 0 0 м н/о +3.9 +1.1 82 +3 +3 1023.2 1001.2
штиль 0 0 м н/о +4.4 +1.7 83 +3 +3 1023.8 1001.8 +3.3 +6.7
нст 1 0 м н/о +6.7 +1.1 67 +4 +4 1024.9 1002.8
Местоположение метеостанции Aeroflex-Andover Airport: широта 41.0093 долгота -74.7363 высота над уровнем моря 178 м.
В архиве по умолчанию представлена погода в Андовере за последние 1-2 суток. Обновление информации о фактической погоде в базе происходит ежечасно! Архивные данные за месяц целиком и за предыдущие месяцы Вы можете получить, выбрав интересующий диапазон дат из раскрывающегося списка и нажав кнопку "Ввод!".
Внимание! Архив погоды МЕТАР в базе сайта по станциям, не включенным в климатический монитор, хранится не более 60 дней. Нет смысла пытаться выбрать более раннюю дату.
*Определитесь, кто Вы:
Внимание! Время в таблицах - местное (без учета летнего времени). Для получения всемирного времени необходимо вычесть поправку, которая равна -5 ч.
Смотрите также архив погоды в соседних городах и на ближайших метеорологических станциях:
Партнеры нашего сайта:      
Пояснения к столбцам:
  • Ветер - указаны скорость ветра в м/с - средняя за 10 мин, порывы в срок и между сроками (в фигурных скобках) и направление, откуда дует ветер: С - северный,
  • СВ - северо-восточный, В - восточный, ЮВ - юго-восточный, Ю - южный, ЮЗ - юго-западный, З - западный, СЗ - северо-западный.
  • Видимость - горизонтальная дальность видимости в метрах или километрах. При видимости от 1 до 10 км при отсутствии осадков обычно наблюдается дымка, при ухудшении видимости до 1 км и менее - туман. В сухую погоду видимость может ухудшаться дымом, пылью или мглою.
  • Явления - указаны атмосферные явления, наблюдавшиеся в срок или в последний час перед сроком; фигурными скобками обозначены явления, наблюдавшиеся между сроками (за 1-3 часа до срока); квадратными скобками обозначены град или гололедные отложения с указанием их диаметра в мм.
  • Облачность - указаны через наклонную черту общая и нижняя облачность в баллах и высота нижней границы облаков в метрах; квадратными скобками обозначены формы облаков: Ci - перистые, Cs - перисто-слоистые, Cc - перисто-кучевые, Ac - высококучевые, As - высокослоистые, Sc - слоисто-кучевые, Ns - слоисто-дождевые, Cu - кучевые, Cb - кучево-дождевые. Подробнее классификацию облаков см. в Атласе облаков (PDF).
  • T - Температура воздуха - температура, измеренная на высоте 2 м над землей.
  • Td - Температура точки росы - температура, при понижении до которой содержащийся в воздухе водяной пар достигнет насыщения.
  • f - Относительная влажность воздуха - влажноcть воздуха, измеренная на высоте 2 м над землей.
  • Te - Эффективная температура - температура, которую ощущает одетый по сезону человек в тени. Характеристика душности погоды. При расчете учитывается влияние влажности воздуха и скорости ветра на теплоощущения человека.
  • Tes - Эффективная температура на солнце - температура, которую ощущает человек, с поправкой на солнечный нагрев. Характеристика знойности погоды. Зависит от высоты солнца над горизонтом, облачности и скорости ветра. Ночью, в пасмурную погоду, а также при ветре 12 м/с и более поправка равна нулю.
  • P - Атмосферное давление - приведенное к уровню моря атмосферное давление.
  • Po - Атмосферное давление - измеренное на уровне метеостанции атмосферное давление.
  • Tmin - Минимальная температура - минимум температуры воздуха на высоте 2 м над землей.
  • Tmax - Максимальная температура - максимум температуры воздуха на высоте 2 м над землей.
  • R - Количество осадков - Количество выпавших осадков за период времени, мм. При наведении курсора мыши на число - период времени, за который выпало указанное количество осадков.
  • R24 - Количество осадков - Количество выпавших осадков за 24 часа, мм.
  • S - Снежный покров - Высота снежного покрова, см. При наведении курсора мыши на число - состояние снежного покрова и степень покрытия местности в баллах.